If you wish to contribute or participate in the discussions about articles you are invited to join SKYbrary as a registered user

 Actions

Kamloops Airport

From SKYbrary Wiki

CYKA
Airport
ICAO: CYKA
Summary
Name Kamloops Airport
Region North America
Territory Canada CA.gif
Location Kamloops, British Columbia
Serving
Coordinates 50° 42' 8.00" N, 120° 26' 31.00" W
Runways
Designator Length Width Surface ROPS
4/22 632 m2,073.491 ft
15 m49.213 ft
ASP yes/yes
8/26 1829 m6,000.656 ft
45 m147.638 ft
ASP yes/yes


METAR
Observation CYKA 220600Z VRB02KT 40SM SCT230 13/08 A2992 RMK CI4 SLP136 DENSITY ALT 1200FT
Station Kamloops, B. C.
Date/Time 22 September 2020 06:00:00
Wind direction °
Wind speed 02 kts
Lowest cloud amount scattered clouds
Temperature 13°C
Dew point 8°C
Humidity 71%
QNH hPa
Weather condition n/a

BS
Tag(s) Bird Strike
CFIT
Tag(s) Altimeter Temperature Error Correction
Runway Visual Perspective
WX
Tag(s) Cumulonimbus
Mountain Waves
Low Level Turbulence

Kamloops Airport

ICAO: CYKA IATA: YKA

Description

Regional airport located near Kamloops, British Columbia.

Climatology

Semi-arid Steppe climate (Köppen climate classification BSk) - Little precipitation, hot summers and cold winters, sometimes with large changes in temperature in a 24 hour period.

Maps

Terrain

Loading map...

Airport Layout

Loading map...


Accidents & Serious Incidents at or in vicinity of CYKA

None on SKYbrary